Theta_e
293 298 301 302 302 301 302 301 300 300 299 298 297 296 296 297 298 300 301 302 303 303 299 297 296 296 294 292 293 294 293 294 295 296 298 300 302 301 301 300 299 300 301
291 296 299 300 300 300 300 299 299 299 299 298 297 297 297 297 297 299 299 301 300 302 300 297 297 295 294 293 293 293 293 293 294 293 293 293 298 300 300 299 300 298 299
289 294 297 298 298 297 297 298 299 299 299 299 298 296 296 295 296 296 297 299 299 300 301 299 297 295 294 293 292 293 293 292 293 293 293 290 290 293 298 298 297 297 297
288 293 296 296 296 296 296 298 299 299 299 298 296 294 293 293 294 295 296 297 298 299 300 300 297 295 294 293 293 295 293 292 291 293 297 295 295 290 291 296 296 296 296
288 292 295 297 295 295 295 297 298 299 299 297 296 294 293 293 294 294 293 294 296 298 300 300 297 295 294 293 293 293 292 293 292 292 292 292 292 294 291 289 291 293 294
289 290 293 294 294 294 295 296 297 298 298 296 295 294 293 292 292 292 292 293 294 296 298 299 297 296 294 293 293 293 293 292 293 293 293 293 292 291 290 288 288 288 291
289 290 290 292 293 293 294 296 296 297 297 295 294 294 293 292 292 292 292 293 293 295 296 297 296 295 295 294 293 293 292 293 292 292 293 294 294 294 293 291 288 288 290
289 290 291 292 293 294 295 295 296 296 296 294 294 293 293 292 292 292 292 293 293 294 296 296 296 296 295 294 293 292 292 292 292 292 292 293 293 294 294 293 290 287 287
288 290 291 291 293 293 295 295 295 296 295 294 293 292 292 292 292 292 292 292 294 296 296 295 295 295 294 294 293 291 291 290 290 291 291 291 292 293 293 293 292 290 285
288 290 290 291 292 294 294 294 295 296 295 294 293 293 292 291 291 291 291 291 292 293 293 293 294 294 293 293 292 291 291 290 290 291 290 290 291 291 291 291 291 291 289
289 290 291 291 291 292 293 294 294 295 294 294 292 292 291 291 291 291 290 290 291 291 291 292 292 293 293 293 291 290 290 289 289 289 289 289 289 289 289 289 290 290 290
290 291 291 292 291 291 292 293 294 294 295 294 292 291 291 290 289 289 290 290 289 290 289 290 290 291 292 292 291 291 291 289 289 289 288 288 291 288 288 287 287 288 288
290 291 291 291 292 292 292 292 293 295 295 293 292 291 290 289 289 289 289 289 289 289 288 289 288 289 290 290 290 290 290 289 289 289 288 288 288 287 287 286 286 286 289
290 290 291 291 292 292 292 292 293 294 294 294 292 291 291 290 289 289 289 289 289 288 288 288 288 288 289 289 289 289 288 288 289 289 289 288 287 287 287 287 287 287 286
290 290 291 291 292 292 293 293 293 294 294 293 292 292 292 291 290 289 289 289 288 288 288 288 287 287 288 289 287 287 287 287 287 287 287 288 289 292 292 290 288 287 286
289 290 291 291 291 291 292 292 292 293 293 293 292 293 292 291 290 290 289 288 288 287 287 287 287 286 288 292 295 293 287 287 287 286 286 286 290 290 293 295 297 293 288
288 288 288 290 290 290 291 291 292 293 292 292 292 292 292 292 291 291 290 288 287 287 286 286 286 285 286 292 294 296 291 288 287 286 286 286 288 290 287 291 294 295 297
287 287 286 287 287 288 289 291 291 290 290 290 290 291 291 291 291 291 289 288 287 286 286 285 286 285 286 292 294 296 291 288 287 287 286 286 286 286 286 285 285 286 287
288 288 287 287 287 287 287 287 287 287 287 287 288 288 288 288 288 288 288 288 287 287 287 287 288 287 287 291 293 294 289 287 286 287 286 286 285 289 292 287 285 285 286
288 288 287 287 287 287 287 287 286 286 286 286 287 289 289 288 288 288 287 287 288 288 288 286 286 288 287 291 293 293 289 287 286 286 286 291 288 291 293 288 285 284 285
286 287 286 285 285 286 286 285 285 285 287 287 287 287 287 287 288 287 287 286 287 287 288 288 288 288 287 288 293 294 290 287 286 285 285 286 291 293 294 294 287 287 287
285 286 285 284 285 285 284 283 283 285 285 285 284 284 284 285 286 284 285 285 285 285 285 285 286 287 288 290 291 292 293 292 286 285 285 286 291 292 293 292 293 294 293
284 285 283 284 284 283 283 282 283 284 284 283 283 283 283 283 283 281 282 282 283 282 282 283 283 283 285 285 289 290 291 291 288 286 288 291 292 293 292 293 292 292 284
283 283 283 282 281 282 282 282 283 284 283 282 281 281 281 282 282 283 283 281 281 281 281 281 280 282 282 283 284 285 285 286 286 286 284 287 290 291 288 287 287 286 284
282 282 281 281 281 282 282 283 284 283 281 281 280 281 282 281 281 281 281 280 282 282 281 281 280 280 281 283 286 286 285 285 285 288 284 282 282 282 283 283 283 282 282
283 282 282 282 282 281 281 282 282 281 280 280 280 280 281 281 280 280 280 286 287 288 289 289 288 286 289 290 290 290 290 291 291 287 284 284 284 283 283 283 282 282 284
Wind_Speed
6 7 7 7 6 4 5 5 5 4 2 1 1 1 2 2 2 2 5 5 3 2 2 2 1 1 1 2 2 2 3 3 4 4 4 3 4 6 5 4 4 6 5
6 7 8 7 7 6 6 5 5 4 3 2 2 2 1 2 2 2 4 4 5 4 3 3 2 1 1 3 3 3 3 2 4 2 0 4 4 4 5 4 4 6 4
8 7 8 8 7 7 8 7 7 6 4 4 1 1 1 1 2 2 2 4 5 5 4 3 2 1 1 1 1 1 2 2 2 4 2 3 1 3 2 3 4 5 4
3 5 8 7 8 8 6 6 6 6 4 5 3 3 2 1 2 1 2 5 4 4 4 3 2 1 1 1 1 1 1 1 2 2 3 2 1 1 4 3 3 4 5
5 7 9 9 5 6 7 6 6 6 5 5 4 3 2 2 1 1 4 4 4 4 4 1 2 1 1 2 2 2 1 0 0 0 1 2 1 0 1 3 5 4 4
6 5 3 5 5 5 6 6 7 6 5 5 5 5 5 4 1 1 2 3 2 3 3 2 2 2 2 2 2 2 2 2 1 1 1 1 1 1 1 1 3 2 3
4 2 5 6 6 7 7 6 6 6 6 7 6 7 7 6 5 3 3 3 2 2 3 2 2 2 2 3 3 3 3 2 2 1 1 1 2 1 2 2 2 1 2
4 4 5 6 7 8 8 8 8 8 7 7 7 5 5 4 3 4 3 3 2 3 3 4 4 4 3 3 3 2 3 3 3 4 4 3 3 3 2 3 2 2 2
6 7 7 7 8 8 9 8 7 7 7 8 6 7 6 6 6 6 4 3 3 3 4 3 4 4 4 4 3 2 3 2 3 4 3 2 2 2 3 2 3 3 1
6 6 6 8 7 7 7 7 8 9 8 7 7 6 6 6 6 4 5 5 4 3 4 4 4 4 4 3 3 2 3 3 3 3 4 3 2 3 2 3 3 3 4
7 6 7 7 8 7 7 7 7 8 7 7 6 7 7 7 6 5 5 6 4 4 4 4 4 5 4 3 3 4 4 4 4 3 4 5 3 3 3 3 3 3 3
8 8 8 7 6 7 6 8 7 8 10 7 6 7 6 6 6 6 6 5 6 4 5 4 5 5 5 4 4 5 4 4 5 5 4 5 2 4 3 3 4 4 4
10 8 7 7 6 7 6 7 7 10 7 6 7 6 7 7 7 7 6 6 6 6 5 5 6 6 6 5 5 5 5 5 5 5 5 5 4 4 3 4 4 3 3
7 7 9 9 7 7 6 6 7 7 6 7 7 7 7 8 7 6 7 6 6 6 6 6 6 6 6 6 5 5 5 5 5 5 5 5 6 6 5 5 5 4 4
12 12 12 11 11 12 10 7 6 5 3 6 6 9 6 5 6 7 6 6 6 6 6 6 6 6 6 5 6 6 6 6 6 6 6 6 7 10 9 4 5 4 3
11 13 13 15 14 14 12 9 8 7 2 4 5 5 3 4 6 5 5 6 6 6 6 7 6 6 5 10 12 9 6 7 7 6 6 6 8 8 11 13 14 10 5
11 12 12 12 12 12 11 11 9 7 7 6 6 5 4 4 5 5 5 6 6 5 7 6 6 7 7 12 13 13 6 6 7 7 6 5 5 8 5 8 10 10 11
11 10 10 10 11 11 12 10 11 11 11 10 9 8 8 7 7 6 6 5 3 4 5 6 6 6 7 13 15 15 6 6 7 7 7 7 7 7 7 6 6 6 6
9 10 7 6 7 9 9 8 9 9 10 10 9 8 6 6 6 6 6 5 4 3 4 4 6 6 9 13 13 12 5 6 8 7 7 7 7 10 13 7 7 6 6
8 9 8 7 9 11 9 8 7 7 8 7 6 6 5 4 5 5 5 3 3 6 5 5 5 9 7 12 13 8 3 6 7 6 7 13 10 14 14 7 6 6 6
5 6 7 6 6 6 6 7 6 7 6 7 6 6 5 6 6 5 4 3 3 2 4 6 7 6 6 7 18 14 6 6 6 6 5 5 14 16 15 13 7 8 6
4 4 4 5 6 5 5 6 7 6 6 6 7 7 7 6 5 6 5 6 6 6 6 5 6 6 7 12 15 17 16 13 6 7 5 6 13 13 13 10 11 13 12
6 5 5 7 8 6 4 6 7 7 7 7 8 8 8 7 6 6 7 6 6 5 6 5 6 6 5 5 12 13 14 14 8 4 8 15 14 14 10 12 13 14 3
6 5 6 7 8 7 6 7 7 7 6 7 7 7 6 8 6 5 5 6 7 6 6 7 6 6 4 4 4 4 5 10 9 9 6 8 11 11 9 8 6 2 2
5 5 6 8 9 8 8 7 8 6 7 7 7 8 7 7 7 6 6 5 7 7 6 6 4 4 7 7 10 8 5 5 8 8 3 3 4 5 4 3 4 3 3
7 8 9 8 9 8 11 10 8 6 7 8 8 7 7 6 6 6 8 12 15 18 16 16 11 7 14 22 21 19 18 18 19 8 7 9 6 6 6 6 7 7 8
Wind_Direction
243 198 197 185 172 174 173 183 167 182 136 93 69 1 320 326 324 12 335 339 340 302 237 236 273 355 2 327 332 324 351 324 331 348 352 14 41 42 34 39 43 42 26
208 198 184 176 183 182 196 186 190 179 163 144 186 167 169 264 261 333 327 339 352 340 269 232 245 226 356 3 12 23 338 305 14 46 277 11 341 16 28 25 31 30 4
225 183 184 191 176 194 194 193 191 185 184 174 128 47 8 306 8 16 336 328 338 336 306 254 223 201 128 352 339 340 26 338 329 30 111 39 335 328 331 16 29 20 21
243 178 180 185 192 202 193 196 191 192 195 170 150 166 183 189 231 268 303 308 338 337 334 274 224 210 173 267 265 179 195 119 356 331 31 40 151 59 335 332 342 4 24
239 211 197 196 188 180 195 197 197 203 194 182 170 166 182 220 266 304 311 311 328 337 353 332 204 230 224 271 261 278 265 207 142 235 14 21 1 66 122 297 324 355 7
335 280 226 158 188 197 195 199 204 217 200 182 183 188 197 212 236 295 305 313 311 312 338 337 209 215 220 235 241 257 267 263 244 257 197 168 152 281 83 327 308 300 315
339 267 196 190 197 205 209 208 205 226 208 199 199 200 204 203 208 222 238 285 312 303 306 325 291 239 237 249 214 203 217 229 220 227 267 224 228 187 183 163 261 311 311
328 283 236 216 221 218 209 204 204 217 210 204 216 211 209 206 212 220 216 231 242 262 286 299 290 267 264 252 236 236 236 210 219 226 211 208 216 201 199 193 162 323 301
311 278 259 232 227 223 218 207 214 228 220 213 211 211 209 203 215 220 217 241 255 255 256 259 263 269 271 264 253 249 255 233 234 241 254 253 260 217 216 204 178 166 273
349 315 282 266 255 239 230 213 217 219 218 214 213 212 213 216 221 212 233 241 256 257 273 284 281 285 277 267 246 253 259 255 267 250 238 234 233 246 219 209 201 192 181
328 311 292 270 247 235 229 234 232 227 226 216 211 211 217 218 220 222 230 233 231 235 253 266 276 276 273 268 260 263 266 256 264 259 246 258 234 241 230 207 202 206 178
323 330 325 307 297 271 256 240 233 223 223 211 206 218 217 214 218 226 234 233 242 240 248 261 265 264 258 255 247 259 270 254 263 268 263 264 261 261 245 220 218 208 199
354 351 359 354 329 306 282 262 245 238 233 199 212 225 228 221 225 226 229 228 231 232 231 228 246 259 257 248 237 232 251 252 253 262 255 259 248 252 242 231 233 224 216
343 349 5 356 341 332 312 287 264 233 220 201 213 228 225 223 221 226 231 234 231 238 241 238 241 246 256 251 245 236 236 238 237 237 234 246 246 247 247 239 234 228 227
7 3 2 355 351 352 347 338 312 295 248 229 221 236 236 225 226 235 235 244 238 234 235 242 244 243 237 237 235 232 232 233 243 242 241 235 234 245 243 233 236 221 221
6 4 5 1 0 357 353 348 348 342 295 272 280 316 290 259 271 280 266 263 255 243 239 239 238 247 241 244 248 235 218 225 225 236 246 248 257 257 260 257 247 218 203
6 4 358 360 2 356 347 357 358 5 26 20 2 348 320 291 275 265 258 257 258 260 259 259 248 254 251 254 255 251 226 225 230 225 223 240 232 242 241 260 265 266 250
0 2 353 357 357 353 0 6 17 26 31 25 18 13 6 355 348 342 318 304 280 268 264 265 259 262 268 264 256 253 237 233 234 226 220 216 229 226 225 227 243 245 242
354 352 340 333 339 0 358 20 22 22 25 19 14 12 14 8 3 1 344 326 306 297 271 260 274 253 263 265 260 267 260 255 253 238 230 222 231 235 234 214 228 243 250
3 359 346 351 0 355 351 10 9 10 12 358 345 344 350 6 0 0 344 306 322 318 318 313 289 282 277 284 286 281 237 256 260 265 250 248 231 244 237 218 214 231 242
348 349 344 342 326 327 345 0 347 353 326 326 323 329 332 326 308 300 290 274 270 287 315 317 305 287 263 295 304 285 263 242 251 248 259 239 250 249 245 238 202 216 222
315 315 314 309 295 308 336 326 325 307 310 310 310 306 303 300 298 293 283 279 271 268 263 263 268 269 268 264 270 278 270 261 228 246 247 249 260 256 246 246 247 246 248
314 307 305 314 314 306 305 306 294 301 298 297 295 296 294 289 286 280 279 284 270 251 254 238 243 257 245 242 278 288 288 286 278 236 253 263 261 255 248 245 254 264 225
291 291 301 294 291 289 281 255 277 283 284 284 283 281 280 290 278 279 279 278 282 274 268 271 270 266 261 243 233 242 261 285 283 276 273 259 254 243 241 251 257 240 219
281 281 287 288 284 292 292 281 275 279 284 282 281 282 280 278 284 270 267 267 267 248 264 260 246 259 277 269 263 250 231 230 233 260 242 243 230 235 225 219 229 216 196
292 289 283 280 284 283 286 289 280 270 277 286 288 278 281 281 274 275 292 282 278 284 284 285 281 273 274 289 293 291 285 279 282 279 259 259 246 235 227 220 224 212 212